Content
SEND FEEDBACK

Daily
Averages
Monthly
Summary
United States of America

LANAI CITY, HAWAII


Home > North America > United States > Hawaii
Elevation: 400 meters     Latitude: 20 47N     Longitude: 156 56W

WEATHER
 
SELECT A DAY
Number of Records: 157,108;   Date Range: 1/1/95 - 10/19/14
 
SHARE

PRINT THIS DATA

[ ← Previous Day ]
WEATHER ALMANAC - 31 JANUARY, 2013
[ Next Day → ]
[ °F ]   °C
Weather ElementAverageHighLow
Temperature20.5 °C23.3 °C (1:56 pm)18.8 °C (1:56 am)
Dewpoint17.8 °C19.4 °C (1:56 pm)16.1 °C (1:56 am)
Humidity84.2 %94 % (12:28 pm)70 % (3:56 pm)
Barometer1018.3 hPa1020.3 hPa (12:07 pm)1016.3 hPa (3:56 am)
Wind Speed28.8 km/h48.1 km/h (8:56 pm)
Wind Gust55.5 km/h (8:56 pm)
Weather ElementAverage
Visibility13.2 km
Wind DirectionNE (43.1 °)

Weather ElementTotal
Precipitation1.27 mm
Cooling Degree Days2.7 (Base 18.3)
Growing Degree Days11.1 (Base 10)
Averaged from 29 records on 31 January, 2013
WEATHER CONDITIONS BREAKOUT
WIND DIRECTION BREAKOUT
WEATHER BY HOUR - 31 JANUARY, 2013
[ °F ]   °C
Local TimeTemperatureDewpointHumidityBarometerVisibilityWind DirectionWind SpeedGust SpeedPrecipitationEventsConditions
1:56 AM18.8 °C16.1 °C84 %1017.3 hPa16.1 kmNE (40°)20.4 km/hClear
2:56 AM20 °C17.2 °C84 %1016.9 hPa16.1 kmNNE (30°)16.7 km/hOvercast
3:56 AM19.4 °C17.7 °C90 %1016.3 hPa16.1 kmNE (40°)22.2 km/hPartly Cloudy
4:56 AM19.4 °C17.2 °C87 %1016.3 hPa16.1 kmNE (40°)22.2 km/hPartly Cloudy
5:56 AM19.4 °C17.7 °C90 %1016.6 hPa16.1 kmNE (40°)27.8 km/hClear
6:56 AM19.4 °C17.7 °C90 %1017.3 hPa16.1 kmNE (50°)22.2 km/hClear
7:56 AM20 °C17.2 °C84 %1017.9 hPa16.1 kmEast (80°)18.5 km/hScattered Clouds
8:56 AM21.1 °C18.3 °C84 %1018.6 hPa16.1 kmNE (40°)27.8 km/h0 mmRainLight Rain
9:56 AM20.5 °C18.8 °C90 %1019 hPa16.1 kmNE (50°)31.5 km/h0 mmRainLight Rain
10:56 AM22.7 °C18.8 °C79 %1019 hPa16.1 kmNE (50°)35.2 km/h0 mmMostly Cloudy
11:56 AM21.6 °C18.3 °C81 %1019 hPa2.9 kmNE (40°)24.1 km/h0 mmRainRain
12:07 PM21 °C18 °C83 %1020.3 hPa1.6 kmNE (40°)20.4 km/h0 mmRainHeavy Rain
12:10 PM21 °C18 °C83 %1020.3 hPa0.8 kmNNE (30°)22.2 km/h0 mmFog-RainHeavy Rain
12:19 PM20 °C18 °C88 %1020.3 hPa1.3 kmNE (50°)25.9 km/h0.25 mmRainHeavy Rain
12:23 PM20 °C18 °C88 %1020.3 hPa1.9 kmNE (50°)24.1 km/h0.25 mmRainLight Rain
12:25 PM20 °C18 °C88 %1020.3 hPa4 kmNE (50°)20.4 km/h0.25 mmRainLight Rain
12:28 PM20 °C19 °C94 %1020 hPa16.1 kmNE (50°)20.4 km/h0.25 mmRainLight Rain
12:56 PM21.1 °C18.8 °C87 %1017.9 hPa16.1 kmNE (40°)18.5 km/h31.5 km/h0.25 mmMostly Cloudy
1:56 PM23.3 °C19.4 °C79 %1016.9 hPa16.1 kmNE (40°)35.2 km/hPartly Cloudy
2:56 PM23.3 °C18.3 °C73 %1016.3 hPa16.1 kmNNE (30°)35.2 km/h44.4 km/h0 mmClear
3:56 PM22.2 °C16.6 °C70 %1016.6 hPa16.1 kmNE (40°)33.3 km/h44.4 km/hScattered Clouds
4:56 PM22.2 °C16.6 °C70 %1016.9 hPa16.1 kmNE (40°)33.3 km/h42.6 km/hClear
5:56 PM21.1 °C17.2 °C78 %1017.3 hPa16.1 kmNE (40°)33.3 km/hClear
6:56 PM20 °C17.2 °C84 %1017.6 hPa16.1 kmNE (40°)38.9 km/h50.1 km/hClear
7:56 PM20 °C17.7 °C87 %1018.3 hPa16.1 kmNE (50°)37 km/h46.3 km/hClear
8:56 PM19.4 °C17.2 °C87 %1018.3 hPa16.1 kmNE (40°)48.1 km/h55.5 km/h0 mmScattered Clouds
9:56 PM19.4 °C17.2 °C87 %1018.6 hPa16.1 kmNE (40°)46.3 km/h53.8 km/h0 mmPartly Cloudy
10:56 PM19.4 °C17.2 °C87 %1018.3 hPa16.1 kmNE (40°)33.3 km/h51.8 km/hPartly Cloudy
11:56 PM19.4 °C17.2 °C87 %1017.9 hPa16.1 kmNE (40°)40.7 km/h48.1 km/hClear
Hourly data recorded from PHNY, located 0 kilometers away from Lanai City, Hawaii







STORIES FROM OUR PARTNERS